Torax TimeFrame

99 2021-03-07 17:28:35
NameTime LeftWindow Opens
Lacuste of the Swarm1d 19:392021-03-06 11:20:01
Skybrine The Inescapable1d 06:142021-03-07 00:45:02
Bolkor, the Holy Master0d 22:392021-03-07 08:20:02
Animated Captain0d 18:442021-03-07 12:15:02
Detox0d 18:242021-03-07 12:35:02
Old World Drake0d 16:492021-03-07 14:10:02
Kro Shuk, Doomslayer0d 13:592021-03-07 17:00:02
King Ashnar, Lord of the Unliving0d 13:492021-03-07 17:10:01
Threk, King of Lords0d 10:542021-03-07 20:05:02
Tsort0d 10:042021-03-07 20:55:03
Volgan the Living Ironbark0d 09:442021-03-07 21:15:03
Terrance, Rebel of Rallis0d 09:192021-03-07 21:40:02
Rancid, Lord of Thugs0d 09:142021-03-07 21:45:03
Lord Xordam0d 08:592021-03-07 22:00:02
Keeper of Nature0d 07:092021-03-07 23:50:01
Sarcrina the Astral Priestess0d 07:042021-03-07 23:55:01
Synge, The Red Dragon0d 07:042021-03-07 23:55:01
Anguish0d 06:042021-03-08 00:55:02
Lady Chaos, Queen of the Abyss0d 05:142021-03-08 01:45:02
Ebliss, Fallen Angel of Despair0d 04:442021-03-08 02:15:01
Lady Ariella0d 03:342021-03-08 03:25:03
Tylos, The Lord Master0d 03:192021-03-08 03:40:02
Rotborn, Eater of the Dead0d 03:092021-03-08 03:50:02
Melt Bane, The Forbidden Demon Dragon0d 00:342021-03-08 06:25:02
Nayark the Mummified Sorcerer0d 00:302021-03-08 07:30:01
Ancient Magus Tarkin0d 01:352021-03-08 08:35:02
Windstrike The Vile0d 01:352021-03-08 08:35:02
Traxodon the Plaguebringer0d 02:102021-03-08 09:10:01
Lord Suka0d 02:402021-03-08 09:40:02
Hyrak, Bringer of Nightmares0d 02:452021-03-08 09:45:02
Crane0d 03:402021-03-08 10:40:03
Brutalitar, Lord of the Underworld0d 04:002021-03-08 11:00:02
Baron Mu, Dark Rider of the Undead0d 04:252021-03-08 11:25:02
Freezebreed, The Frozen Manipulator0d 04:252021-03-08 11:25:03
Gnorb0d 08:202021-03-08 15:20:01
Sylvanna TorLai0d 08:252021-03-08 15:25:02
Wanhiroeaz the Devourer0d 08:352021-03-08 15:35:02
Samatha Dark-Soul0d 09:002021-03-08 16:00:02
Garland, The Lord Keeper0d 09:552021-03-08 16:55:02
Shadow0d 10:102021-03-08 17:10:02
Vitkros, Hydra of the Deep0d 11:202021-03-08 18:20:02
Howldroid, Tormentor of the Pit0d 12:252021-03-08 19:25:02
Varsanor, Master of Darkness0d 14:052021-03-08 21:05:02
Mistress of the Sword0d 14:552021-03-08 21:55:02
Lord Varan0d 16:102021-03-08 23:10:03
Lord Narada0d 17:152021-03-09 00:15:02
Nessam0d 17:452021-03-09 00:45:02
Zikkir the Dark Archer0d 18:052021-03-09 01:05:01
Ganja the Stone Golem0d 21:352021-03-09 04:35:02
Jazzmin, Maiden of Vitality0d 21:552021-03-09 04:55:01
Crolvak, the Fire Master0d 22:052021-03-09 05:05:02
Pinosis0d 22:352021-03-09 05:35:02
Lord Sibannac1d 00:052021-03-09 07:05:02
Ormsul the Putrid1d 02:202021-03-09 09:20:02
Nar Zhul, Slayer of All1d 06:402021-03-09 13:40:03
Jorun the Blazing Swordsman1d 09:102021-03-09 16:10:02
Bloodchill the Grizzly1d 10:452021-03-09 17:45:02
Numerocure, The Black Messenger of Evil1d 11:002021-03-09 18:00:02
The Emerald Assassin1d 14:202021-03-09 21:20:03
Dreg nor, Keeper of the Infernal Essence1d 15:152021-03-09 22:15:02
Dexor, Victor of Veldara1d 15:552021-03-09 22:55:02
Zertan, The Collector1d 16:352021-03-09 23:35:02
Skarthul the Avenged1d 18:202021-03-10 01:20:02
Smoot the Yeti1d 19:352021-03-10 02:35:02
Nafir, God of Desolation1d 21:552021-03-10 04:55:02
Murderface2d 03:052021-03-10 10:05:02
Hackerphage, Protector of the Gateway2d 05:452021-03-10 12:45:03
Felroc, Overseer of Hellfire2d 06:452021-03-10 13:45:02
Grivvek, Protector of the Brood2d 07:252021-03-10 14:25:02
Sigil, Lich of Woe2d 07:452021-03-10 14:45:02
Gorganus of the Wood2d 07:552021-03-10 14:55:02
Murfax, Beast of the Caves2d 08:052021-03-10 15:05:01
Quiver, The Renegade2d 10:152021-03-10 17:15:02
Q-SEC Commander2d 13:502021-03-10 20:50:02
Akkel the Enflamed Warrior2d 14:002021-03-10 21:00:01
Amalgamated Apparition2d 14:152021-03-10 21:15:01
Gregov, Knight of the Woods2d 14:402021-03-10 21:40:01
Xynak, the Arcane Master2d 16:052021-03-10 23:05:02
Anvilfist2d 17:002021-03-11 00:00:02
Crantos, Defender of Ultimation2d 17:052021-03-11 00:05:02
Archdevil Yirkon2d 17:202021-03-11 00:20:02
Straya, the Underworld Ruler2d 18:302021-03-11 01:30:03
Ag Nabak the Abomination2d 21:352021-03-11 04:35:02
Great Lord Ganeshan3d 11:402021-03-11 18:40:02
Slashbrood, Devourer of the Blackness3d 13:152021-03-11 20:15:01
Balerion, Dragon of Dread3d 19:002021-03-12 02:00:02
Thanox, Balancer of Chaos3d 23:002021-03-12 06:00:02
Raiyar, the Shadow Master3d 23:502021-03-12 06:50:02
Kretok, Descendant of Nature4d 01:552021-03-12 08:55:03
Esquin, the Kinetic Master4d 07:552021-03-12 14:55:02
Dlanod, the Crazed Chancellor4d 08:302021-03-12 15:30:02
Karvaz, Lord of Alsayic4d 16:502021-03-12 23:50:03
Viserion, the Necrodragon5d 01:302021-03-13 08:30:03
Emperor Neudeus, Controller of the Universe5d 02:102021-03-13 09:10:01
Shaik, Servant of Arkron226d 17:432020-07-24 13:16:00
Rook, Hand of Arkron225d 21:572020-07-25 09:02:00
Beast of Cards20d 07:142021-02-15 23:45:01
Noxious Slug20d 07:142021-02-15 23:45:02
Jade Dragonite10d 16:542021-02-25 14:05:02